www.pogodaiklimat.ru

Погода и климат >> Архив погоды >> Россия >> Дагестан >> Кочубей


ПОГОДА в Кочубее

  • Прогноз погоды в Кочубее
  • Монитор погоды в Кочубее

АРХИВ ПОГОДЫ в Кочубее

Время (UTC), дата Ветер
(напр.,м/с)
 
Видим.   Явления Облачность Т
(С)
Тd
(С)
f
(%)
Тe
(С)
Тes
(С)
Комфортность P
(гПа)
Po
(гПа)
Тmin
(С)
Tmax
(С)
R
(мм)
R24
(мм)
S
(см)
12 18.05 В 9-12
{13}
20 км 6/0
[Ci fib]
+26.5 +11.6 39 +28 +29 жарко 1010.1 1012.6
15 18.05 В 6-10
{13}
20 км 8/0
[Ci fib]
+22.8 +13.9 57 +26 +27 жарко 1009.8 1012.4 +27.1
18 18.05 В 3
{10}
4000 м 6/0
[Ci fib]
+18.1 +14.2 78 +18 +18 1010.2 1012.8
21 18.05 СВ 4 4000 м 8/0
[Ci fib]
+18.2 +16.8 92 +18 +18 1008.9 1011.4
00 19.05 СВ 3 4000 м 8/0
[Ci fib]
+17.7 +16.4 92 +18 +18 1008.1 1010.7
03 19.05 СВ 1 20 км 8/6 600 м
[Cu hum Ci fib]
+18.9 +17.7 93 +21 +22 комфорт 1008.3 1010.9 +16.2
06 19.05 В 6
{10}
20 км 6/3 600 м
[Cu hum Ci fib]
+24.1 +14.9 56 +27 +30 жарко 1009.2 1011.7
09 19.05 СВ 6
{11}
20 км 10/0
[Ac trans Ci sp]
+25.1 +12.6 46 +27 +32 жарко 1009.5 1012.0
12 19.05 СВ 6
{11}
20 км 8/4 600 м
[Sc Ci fib]
+25.4 +12.5 45 +27 +29 жарко 1009.9 1012.4
15 19.05 В 5 20 км 8/6 600 м
[Sc Ac trans Ci fib]
+23.1 +12.2 50 +26 +26 жарко 1011.1 1013.6 +26.3
18 19.05 В 2 4000 м 8/8 600 м
[Sc]
+20.3 +14.2 68 +23 +23 комфорт 1012.1 1014.7
21 19.05 штиль 0 4000 м 8/0
[Ci fib]
+17.6 +13.9 79 +18 +18 1011.9 1014.5
00 20.05 ЮЗ 2 4000 м 10/10 600 м
[Sc]
+17.1 +13.8 81 +17 +17 1012.7 1015.3
03 20.05 штиль 0 20 км 8/4 600 м
[Cb calv Ac trans Ci fib]
+17.3 +14.6 84 +17 +18 1012.7 1015.3 +15.9
06 20.05 СВ 3 20 км 10/4 600 м
[Cu med, cong Ac trans Ci sp]
+25.0 +9.4 37 +26 +29 жарко 1014.3 1016.8
09 20.05 С 3 20 км 9/0
[Ac trans Ci sp]
+27.0 +6.7 28 +27 +36 жарко 1014.8 1017.3
12 20.05 В 5 20 км 9/3 600 м
[Sc Ac trans Ci sp]
+26.5 +7.5 30 +26 +29 жарко 1015.1 1017.6
15 20.05 В 4 20 км 8/3 600 м
[Sc Ci sp]
+24.6 +6.8 32 +25 +25 комфорт 1015.6 1018.2 +29.3
18 20.05 В 3 4000 м ясно +18.0 +12.2 69 +18 +18 1016.9 1019.5
21 20.05 В 3 4000 м 4/4 600 м
[Cu med, cong]
+16.8 +11.9 73 +17 +17 1017.5 1020.1
00 21.05 СВ 3
{30}
4000 м 4/3 600 м
[Sc Ci fib]
+14.9 +9.1 68 +14 +14 1018.5 1021.1
03 21.05 В 1 20 км 6/6 600 м
[Sc]
+16.4 +10.2 67 +17 +18 1020.0 1022.7 +14.1
06 21.05 В 7-10
{12}
50 км 4/0
[Ac trans Ci fib]
+22.1 +8.5 42 +23 +26 комфорт 1020.7 1023.3
09 21.05 В 8-11
{13}
20 км 4/3 600 м
[Cu hum Ci fib]
+23.0 +7.0 36 +24 +26 комфорт 1021.2 1023.8
12 21.05 В 8-11
{13}
20 км ясно +22.0 +6.7 37 +23 +25 комфорт 1021.4 1024.0
15 21.05 В 7-10
{13}
20 км 3/0
[Ci fib]
+19.3 +6.3 43 +19 +20 1021.4 1024.0 +23.0
18 21.05 В 3
{10}
4000 м ясно +14.4 +7.5 63 +14 +14 1022.0 1024.7
21 21.05 В 3 4000 м ясно +12.4 +8.1 75 +11 +11 1021.2 1024.9
00 22.05 В 2 4000 м ясно +11.2 +7.6 78 +10 +10 1020.0 1022.7
03 22.05 В 6 20 км 4/0
[Ci sp]
+16.7 +8.0 56 +16 +16 1029.2 1021.8 +10.2
06 22.05 В 10-13
{16}
20 км 10/0
[Ci fib]
+20.4 +5.8 38 +20 +21 1017.6 1020.2
09 22.05 В 10-15
{16}
20 км 3/0
[Ci fib]
+22.4 +6.9 37 +23 +24 комфорт 1015.8 1018.4
12 22.05 В 11-16
{19}
20 км 8/0
[Ci fib]
+22.1 +8.3 41 +23 +23 комфорт 1014.3 1016.9
15 22.05 В 6
{16}
20 км 8/0
[Ac trans Ci sp]
+19.7 +8.1 47 +20 +21 1015.4 1018.0 +22.8
18 22.05 В 2 4000 м 8/8 600 м
[Sc]
+17.2 +9.1 59 +18 +18 1016.2 1018.8
21 22.05 В 2 4000 м 8/8 600 м
[Sc]
+16.5 +9.2 62 +17 +17 1014.7 1017.3
00 23.05 В 1 4000 м 10/10 600 м
[Sc]
+15.3 +9.8 70 +16 +16 1013.9 1016.5
03 23.05 СЗ 2 20 км 8/4 600 м
[Sc Ci fib]
+15.8 +11.2 74 +16 +17 1013.4 1016.0 +13.0
06 23.05 В 1 20 км 3/3 600 м
[Cu hum Ac trans Ci fib]
+21.7 +11.4 52 +24 +34 комфорт 1013.1 1015.7
09 23.05 СВ 2 20 км 4/3 600 м
[Cu hum Ci fib]
+24.8 +11.0 42 +26 +39 жарко 1011.8 1014.3
12 23.05 В 6
{10}
20 км 8/4 600 м
[Cb calv Ac trans Ci sp]
+24.5 +10.1 40 +25 +27 комфорт 1010.1 1012.6
15 23.05 В 5
{13}
20 км {ливн. осадки} 8/6 600 м
[Cb calv Ac trans Ci sp]
+19.8 +12.7 64 +21 +22 комфорт 1011.2 1013.8 +26.0 0.0
18 23.05 Ю 2 4000 м {ливн. осадки} 6/4 600 м
[Sc Ci fib]
+17.3 +13.7 79 +18 +18 1011.7 1014.4
21 23.05 З 2 4000 м 4/0
[Ac trans]
+17.0 +12.3 74 +17 +17 1012.0 1014.6
00 24.05 ЮЗ 3 4000 м 6/0
[Ac trans]
+16.1 +12.8 81 +16 +16 1012.0 1014.6
03 24.05 ЮЗ 2 20 км 3/0
[Ac trans]
+16.7 +13.5 81 +17 +18 1012.0 1014.6 +14.6
06 24.05 З 6
{10}
20 км 6/4 600 м
[Cu med, cong Ci fib]
+24.4 +10.2 41 +25 +28 комфорт 1011.5 1014.0
09 24.05 З 6
{11}
20 км 8/6 600 м
[Cb calv Ci sp]
+26.1 +10.2 37 +27 +30 жарко 1010.9 1013.4
12 24.05 СЗ 5
{13}
20 км 8/8 600 м
[Cb calv Ci fib]
+27.5 +9.3 32 +28 +29 жарко 1010.6 1013.1
15 24.05 З 3 20 км 8/6 600 м
[Cb calv Ci sp]
+27.2 +8.6 31 +27 +28 жарко 1010.5 1013.0 +28.2
18 24.05 ЮВ 3 4000 м 3/0
[Ci fib]
+22.2 +11.9 52 +25 +25 комфорт 1011.8 1014.4
21 24.05 ЮВ 3 4000 м ясно +18.3 +13.0 71 +19 +19 1011.6 1014.2
00 25.05 ЮВ 3 4000 м 6/0
[Ci fib]
+16.4 +12.9 80 +16 +16 1010.9 1013.5
03 25.05 В 3 20 км 8/0
[Ci sp]
+19.8 +14.1 70 +22 +23 комфорт 1011.0 1013.6 +15.5
06 25.05 В 8-13
{13}
20 км 4/0
[Ci sp]
+27.1 +9.4 33 +27 +29 жарко 1010.2 1012.8

 

Местоположение метеостанции Кочубей (Дагестан, Россия): широта 44.40 долгота 46.55 высота над уровнем моря -21 м.

В архиве по умолчанию представлена погода в Кочубее за последнюю неделю. Архивные данные за месяц целиком и за предыдущие месяцы, начиная с января 2011 года, Вы можете получить, выбрав интересующий диапазон дат из раскрывающегося списка и нажав кнопку "Ввод!".


*Определитесь, кто Вы:
робот инопланетянин человек

Внимание! Время в таблицах - всемирное. Для получения местного времени необходимо прибавить поправку, которая равна 3 ч.

Смотрите также архив погоды в соседних городах и на ближайших метеорологических станциях:

Погода в Терекли-Мектебе (Дагестан, Россия) (61 км)
Погода в Артезиане (Калмыкия, Россия) (63 км)
Погода в Кизляре (Дагестан, Россия) (65 км)
Погода на Острове Тюлений (Дагестан, Россия) (74 км)
Погода в Южно-Сухокумске (Дагестан, Россия) (77 км)
Погода в Бабаюрте (Дагестан, Россия) (91 км)
Погода в Шелковской (Чечня, Россия) (98 км)
Погода в Рощино (Ставропольский край, Россия) (111 км)
Погода в Комсомольском (Калмыкия, Россия) (113 км)
Погода в Гудермесе (Чечня, Россия) (122 км)

Пояснения к столбцам:

Ветер - указаны скорость ветра в м/с - средняя за 10 мин, порывы в срок и между сроками (в фигурных скобках) и направление, откуда дует ветер: С - северный, СВ - северо-восточный, В - восточный, ЮВ - юго-восточный, Ю - южный, ЮЗ - юго-западный, З - западный, СЗ - северо-западный.
Видимость - горизонтальная дальность видимости в метрах или километрах. При видимости от 1 до 10 км при отсутствии осадков обычно наблюдается дымка, при ухудшении видимости до 1 км и менее - туман. В сухую погоду видимость может ухудшаться дымом, пылью или мглою.
Явления - указаны атмосферные явления, наблюдавшиеся в срок или в последний час перед сроком; фигурными скобками обозначены явления, наблюдавшиеся между сроками (за 1-3 часа до срока); квадратными скобками обозначены град или гололедные отложения с указанием их диаметра в мм.
Облачность - указаны через наклонную черту общая и нижняя облачность в баллах и высота нижней границы облаков в метрах; квадратными скобками обозначены формы облаков: Ci - перистые, Cs - перисто-слоистые, Cc - перисто-кучевые, Ac - высококучевые, As - высокослоистые, Sc - слоисто-кучевые, Ns - слоисто-дождевые, Cu - кучевые, Cb - кучево-дождевые. Подробнее классификацию облаков см. в Атласе облаков (PDF).
T - Температура воздуха - температура, измеренная на высоте 2 м над землей.
Td - Температура точки росы - температура, при понижении до которой содержащийся в воздухе водяной пар достигнет насыщения.
f - Относительная влажность воздуха - влажноcть воздуха, измеренная на высоте 2 м над землей.
Te - Эффективная температура - температура, которую ощущает одетый по сезону человек в тени. Характеристика душности погоды. При расчете учитывается влияние влажности воздуха и скорости ветра на теплоощущения человека.
Tes - Эффективная температура на солнце - температура, которую ощущает человек, с поправкой на солнечный нагрев. Характеристика знойности погоды. Зависит от высоты солнца над горизонтом, облачности и скорости ветра. Ночью, в пасмурную погоду, а также при ветре 12 м/с и более поправка равна нулю.
P - Атмосферное давление - приведенное к уровню моря атмосферное давление.
Po - Атмосферное давление - измеренное на уровне метеостанции атмосферное давление.
Tmin - Минимальная температура - минимум температуры воздуха на высоте 2 м над землей.
Tmax - Максимальная температура - максимум температуры воздуха на высоте 2 м над землей.
R - Количество осадков - Количество выпавших осадков за период времени, мм. При наведении курсора мыши на число - период времени, за который выпало указанное количество осадков.
R24 - Количество осадков - Количество выпавших осадков за 24 часа, мм.
S - Снежный покров - Высота снежного покрова, см. При наведении курсора мыши на число - состояние снежного покрова и степень покрытия местности в баллах.